Albuquerque, NM

5:15 PM MDT on September 24, 2017 (GMT -0600)
Albuquerque International Sunport

Weather History for KABQ - October, 2010

Change the Weather History Date:

Monday, October 11, 2010

  Actual Average Record
Temperature  
Mean Temperature 60 °F 60 °F  
Max Temperature 73 °F 71 °F 88 °F (1979)
Min Temperature 47 °F 48 °F 24 °F (1913)
Degree Days  
Heating Degree Days 5 6  
Month to date heating degree days 12 47  
Since 1 July heating degree days 12 73  
Cooling Degree Days 0 0  
Month to date cooling degree days 30 7  
Year to date cooling degree days 1634 1319  
Growing Degree Days 10 (Base 50)    
Moisture  
Dew Point 31 °F    
Average Humidity 36    
Maximum Humidity 50    
Minimum Humidity 22    
Precipitation  
Precipitation 0.00 in 0.04 in 0.55 in (2000)
Month to date precipitation 0.09 0.43  
Year to date precipitation 7.70 7.79  
Snow  
Snow 0.00 in - - ()
Month to date snowfall 0.0  
Since 1 July snowfall 0.0  
Since 1 September snowfall 0.0  
Snow Depth 0.00 in    
Sea Level Pressure  
Sea Level Pressure 29.96 in    
Wind  
Wind Speed 4 mph (NNW)    
Max Wind Speed 12 mph    
Max Gust Speed 15 mph    
Visibility 10 miles    
Events      
T = Trace of Precipitation, MM = Missing Value Source: NWS Daily Summary

Daily Weather History Graph

Daily Weather History Graph

Search for Another Location

Airport or City:

Trip Planner

Search our weather history database for the weather conditions in past years. The results will help you decide how hot, cold, wet, or windy it might be!

Date:

Astronomy

Oct. 11, 2010 Rise Set
Actual Time 7:09 AM MDT 6:36 PM MDT
Civil Twilight 6:43 AM MDT 7:01 PM MDT
Nautical Twilight 6:14 AM MDT 7:31 PM MDT
Astronomical Twilight 5:45 AM MDT 8:00 PM MDT
Moon 11:35 AM MDT (10/11) 9:29 PM MDT (10/11)
Length of Visible Light 12h 18m
Length of Day
11h 27m
Waxing Crescent, 20% of the Moon is Illuminated
Oct 11
Waxing Crescent
Oct 14
First Quarter
Oct 22
Full
Oct 30
Last Quarter
Nov 5
New

Hourly Weather History & Observations

Time (MDT) Temp. Dew Point Humidity Pressure Visibility Wind Dir Wind Speed Gust Speed Precip Events Conditions
12:56 AM 53.1 °F 28.9 °F 40% 29.93 in 10.0 mi SE 4.6 mph - N/A   Partly Cloudy
1:56 AM 54.0 °F 32.0 °F 43% 29.93 in 10.0 mi WNW 5.8 mph - N/A   Clear
2:56 AM 54.0 °F 30.0 °F 40% 29.93 in 10.0 mi West 3.5 mph - N/A   Clear
3:56 AM 48.0 °F 30.9 °F 52% 29.93 in 10.0 mi Calm Calm - N/A   Clear
4:56 AM 48.9 °F 30.0 °F 48% 29.94 in 10.0 mi East 4.6 mph - N/A   Clear
5:56 AM 52.0 °F 30.0 °F 43% 29.95 in 10.0 mi NE 3.5 mph - N/A   Partly Cloudy
6:56 AM 50.0 °F 30.9 °F 48% 29.98 in 10.0 mi North 3.5 mph - N/A   Clear
7:56 AM 50.0 °F 30.0 °F 46% 30.01 in 10.0 mi North 6.9 mph - N/A   Clear
8:56 AM 53.1 °F 30.0 °F 41% 30.02 in 10.0 mi North 8.1 mph - N/A   Clear
9:56 AM 57.0 °F 30.9 °F 37% 30.01 in 10.0 mi North 8.1 mph - N/A   Clear
10:56 AM 61.0 °F 30.9 °F 32% 30.00 in 10.0 mi NNW 6.9 mph - N/A   Partly Cloudy
11:56 AM 64.0 °F 30.9 °F 29% 29.98 in 10.0 mi Variable 4.6 mph - N/A   Partly Cloudy
12:56 PM 69.1 °F 32.0 °F 25% 29.96 in 10.0 mi NNE 4.6 mph - N/A   Partly Cloudy
1:56 PM 70.0 °F 30.9 °F 24% 29.93 in 10.0 mi NW 5.8 mph - N/A   Partly Cloudy
2:56 PM 69.1 °F 30.9 °F 24% 29.91 in 10.0 mi SW 4.6 mph - N/A   Partly Cloudy
3:56 PM 71.1 °F 30.0 °F 22% 29.91 in 10.0 mi SSW 4.6 mph - N/A   Partly Cloudy
4:56 PM 72.0 °F 30.0 °F 21% 29.90 in 10.0 mi Calm Calm - N/A   Partly Cloudy
5:56 PM 71.1 °F 30.0 °F 22% 29.90 in 10.0 mi SSW 3.5 mph - N/A   Partly Cloudy
6:56 PM 68.0 °F 30.9 °F 25% 29.93 in 10.0 mi SSE 6.9 mph - N/A   Clear
7:56 PM 66.9 °F 32.0 °F 27% 29.96 in 10.0 mi North 4.6 mph - N/A   Clear
8:56 PM 64.0 °F 32.0 °F 30% 29.98 in 10.0 mi Calm Calm - N/A   Clear
9:56 PM 66.0 °F 27.0 °F 23% 29.98 in 10.0 mi Calm Calm - N/A   Clear
10:56 PM 61.0 °F 30.9 °F 32% 30.00 in 10.0 mi WNW 5.8 mph - N/A   Clear
11:56 PM 51.1 °F 30.9 °F 46% 30.03 in 10.0 mi ESE 6.9 mph - N/A   Clear